Weather History for KMGC - January, 2014

Change the Weather History Date:

Thursday, January 16, 2014

  Actual Average (KVPZ) Record (KVPZ)
Temperature  
Mean Temperature 24 °F 23 °F  
Max Temperature 32 °F 31 °F 49 °F (2012)
Min Temperature 17 °F 16 °F -20 °F (2009)
Degree Days  
Heating Degree Days 40 42  
Month to date heating degree days 663  
Since 1 July heating degree days 3065  
Cooling Degree Days 0 0  
Month to date cooling degree days 0  
Year to date cooling degree days 0  
Moisture  
Dew Point 20 °F    
Average Humidity 77    
Maximum Humidity 93    
Minimum Humidity 55    
Precipitation  
Precipitation 0.00 in 0.06 in 0.04 in (2002)
Month to date precipitation 0.86  
Year to date precipitation 0.86  
Sea Level Pressure  
Sea Level Pressure 29.66 in    
Wind  
Wind Speed 12 mph (SSW)    
Max Wind Speed 20 mph    
Max Gust Speed 25 mph    
Visibility 8 miles    
Events Snow    
T = Trace of Precipitation, MM = Missing Value Source: NWS Daily Summary

Daily Weather History Graph

Daily Weather History Graph

Search for Another Location

Airport or City:

Trip Planner

Search our weather history database for the weather conditions in past years. The results will help you decide how hot, cold, wet, or windy it might be!

Date:

Astronomy

Jan. 16, 2014 Rise Set
Actual Time 7:11 AM CST 4:43 PM CST
Civil Twilight 6:40 AM CST 5:13 PM CST
Nautical Twilight 6:06 AM CST 5:47 PM CST
Astronomical Twilight 5:33 AM CST 6:21 PM CST
Moon 5:35 PM CST (1/16) 7:03 AM CST (1/16)
Length of Visible Light 10h 32m
Length of Day
9h 31m
Full, 100% of the Moon is Illuminated
Jan 16
Full
Jan 23
Last Quarter
Jan 30
New
Feb 6
First Quarter
Feb 14
Full

Hourly Weather History & Observations

Time (CST) Temp. Windchill Dew Point Humidity Pressure Visibility Wind Dir Wind Speed Gust Speed Precip Events Conditions
12:15 AM 17.6 °F 6.4 °F 12.2 °F 79% 29.91 in 10.0 mi South 9.2 mph 16.1 mph N/A   Clear
12:35 AM 19.4 °F 7.2 °F 12.2 °F 74% 29.90 in 10.0 mi South 11.5 mph 16.1 mph N/A   Mostly Cloudy
12:55 AM 19.4 °F 6.6 °F 12.2 °F 74% 29.88 in 10.0 mi South 12.7 mph 17.3 mph N/A   Overcast
1:15 AM 19.4 °F 6.0 °F 12.2 °F 74% 29.86 in 10.0 mi South 13.8 mph 20.7 mph N/A   Overcast
1:35 AM 19.4 °F 7.2 °F 12.2 °F 74% 29.85 in 10.0 mi South 11.5 mph 16.1 mph N/A   Overcast
1:55 AM 19.4 °F 5.5 °F 12.2 °F 74% 29.83 in 10.0 mi SSW 15.0 mph 21.9 mph N/A   Overcast
2:15 AM 21.2 °F 8.9 °F 14.0 °F 74% 29.81 in 10.0 mi South 12.7 mph 23.0 mph N/A   Overcast
2:35 AM 21.2 °F 8.3 °F 14.0 °F 74% 29.80 in 10.0 mi South 13.8 mph 20.7 mph N/A   Overcast
2:55 AM 21.2 °F 8.9 °F 14.0 °F 74% 29.79 in 10.0 mi South 12.7 mph 19.6 mph N/A   Overcast
3:15 AM 21.2 °F 9.5 °F 14.0 °F 74% 29.77 in 10.0 mi South 11.5 mph 21.9 mph N/A   Overcast
3:35 AM 21.2 °F 7.3 °F 14.0 °F 74% 29.76 in 10.0 mi South 16.1 mph 21.9 mph N/A Snow Light Snow
3:55 AM 21.2 °F 9.5 °F 14.0 °F 74% 29.76 in 7.0 mi South 11.5 mph 20.7 mph N/A Snow Light Snow
4:15 AM 23.0 °F 11.1 °F 15.8 °F 74% 29.74 in 10.0 mi South 12.7 mph 20.7 mph N/A   Overcast
4:35 AM 23.0 °F 10.6 °F 15.8 °F 74% 29.73 in 10.0 mi South 13.8 mph 20.7 mph N/A   Overcast
4:55 AM 23.0 °F 11.1 °F 15.8 °F 74% 29.71 in 10.0 mi South 12.7 mph 20.7 mph N/A   Overcast
5:15 AM 23.0 °F 11.1 °F 17.6 °F 80% 29.70 in 10.0 mi South 12.7 mph 23.0 mph N/A   Overcast
5:35 AM 23.0 °F 9.6 °F 17.6 °F 80% 29.69 in 10.0 mi South 16.1 mph 23.0 mph N/A   Overcast
5:55 AM 23.0 °F 11.1 °F 17.6 °F 80% 29.69 in 7.0 mi South 12.7 mph 21.9 mph N/A Snow Light Snow
6:15 AM 23.0 °F 9.6 °F 17.6 °F 80% 29.68 in 7.0 mi South 16.1 mph 25.3 mph N/A Snow Light Snow
6:35 AM 23.0 °F 9.6 °F 17.6 °F 80% 29.67 in 10.0 mi South 16.1 mph 23.0 mph N/A   Overcast
6:55 AM 23.0 °F 8.3 °F 17.6 °F 80% 29.67 in 10.0 mi South 19.6 mph 24.2 mph N/A   Overcast
7:15 AM 23.0 °F 10.6 °F 17.6 °F 80% 29.67 in 10.0 mi South 13.8 mph 21.9 mph N/A   Overcast
7:35 AM 24.8 °F 14.0 °F 17.6 °F 74% 29.65 in 10.0 mi South 11.5 mph 23.0 mph N/A Snow Light Snow
7:55 AM 24.8 °F 12.4 °F 19.4 °F 80% 29.66 in 10.0 mi SSW 15.0 mph 20.7 mph N/A Snow Light Snow
8:15 AM 24.8 °F 13.4 °F 19.4 °F 80% 29.65 in 10.0 mi SSW 12.7 mph 25.3 mph N/A   Overcast
8:35 AM 26.6 °F 14.3 °F 19.4 °F 74% 29.66 in 10.0 mi South 16.1 mph 24.2 mph N/A   Overcast
8:55 AM 26.6 °F 15.7 °F 21.2 °F 80% 29.66 in 10.0 mi South 12.7 mph 21.9 mph N/A   Overcast
9:15 AM 26.6 °F 14.7 °F 21.2 °F 80% 29.66 in 7.0 mi SSW 15.0 mph 20.7 mph N/A Snow Light Snow
9:35 AM 26.6 °F 17.5 °F 21.2 °F 80% 29.65 in 3.0 mi SSW 9.2 mph 19.6 mph N/A Snow Light Snow
9:55 AM 26.6 °F 14.7 °F 23.0 °F 86% 29.65 in 2.0 mi South 15.0 mph 20.7 mph N/A Snow Light Snow
10:15 AM 26.6 °F 14.7 °F 23.0 °F 86% 29.64 in 5.0 mi South 15.0 mph 20.7 mph N/A Snow Light Snow
10:35 AM 28.4 °F 17.0 °F 23.0 °F 80% 29.63 in 10.0 mi South 15.0 mph 21.9 mph N/A   Overcast
10:55 AM 28.4 °F 17.5 °F 23.0 °F 80% 29.62 in 10.0 mi SSW 13.8 mph 23.0 mph N/A   Overcast
11:15 AM 28.4 °F 17.5 °F 23.0 °F 80% 29.61 in 10.0 mi South 13.8 mph 23.0 mph N/A   Overcast
11:35 AM 28.4 °F 16.6 °F 23.0 °F 80% 29.60 in 10.0 mi SSW 16.1 mph 24.2 mph N/A   Overcast
11:55 AM 28.4 °F 17.0 °F 23.0 °F 80% 29.58 in 10.0 mi SSW 15.0 mph 24.2 mph N/A   Overcast
12:15 PM 28.4 °F 18.5 °F 23.0 °F 80% 29.57 in 10.0 mi South 11.5 mph 18.4 mph N/A   Overcast
12:35 PM 30.2 °F 20.2 °F 23.0 °F 75% 29.56 in 10.0 mi SSW 12.7 mph 23.0 mph N/A   Overcast
12:55 PM 30.2 °F 19.8 °F 24.8 °F 80% 29.55 in 10.0 mi SSW 13.8 mph 23.0 mph N/A   Overcast
1:15 PM 30.2 °F 20.2 °F 24.8 °F 80% 29.54 in 3.0 mi South 12.7 mph 18.4 mph N/A Snow Light Snow
1:35 PM 30.2 °F 19.3 °F 26.6 °F 86% 29.54 in 10.0 mi South 15.0 mph 20.7 mph N/A   Overcast
1:55 PM 30.2 °F 19.8 °F 26.6 °F 86% 29.54 in 2.5 mi SSW 13.8 mph 17.3 mph N/A Snow Light Snow
2:35 PM 30.2 °F 20.2 °F 26.6 °F 86% 29.54 in 4.0 mi SSW 12.7 mph 16.1 mph N/A Snow Light Snow
2:55 PM 32.0 °F 22.5 °F 26.6 °F 80% 29.54 in 7.0 mi South 12.7 mph 17.3 mph N/A Snow Light Snow
3:15 PM 32.0 °F 22.5 °F 26.6 °F 80% 29.54 in 4.0 mi SSW 12.7 mph 18.4 mph N/A Snow Light Snow
3:35 PM 32.0 °F 23.6 °F 28.4 °F 87% 29.54 in 5.0 mi SSW 10.4 mph 19.6 mph N/A Snow Light Snow
3:55 PM 32.0 °F 23.6 °F 28.4 °F 87% 29.54 in 10.0 mi SSW 10.4 mph - N/A   Overcast
4:15 PM 32.0 °F 23.6 °F 28.4 °F 87% 29.55 in 4.0 mi SSW 10.4 mph 17.3 mph N/A Snow Light Snow
4:35 PM 32.0 °F 22.5 °F 28.4 °F 87% 29.55 in 2.0 mi SSW 12.7 mph 17.3 mph N/A Snow Light Snow
4:55 PM 32.0 °F 22.5 °F 28.4 °F 87% 29.55 in 5.0 mi SSW 12.7 mph 19.6 mph N/A Snow Light Snow
5:15 PM 32.0 °F 24.2 °F 28.4 °F 87% 29.55 in 3.0 mi South 9.2 mph - N/A Snow Light Snow
5:35 PM 32.0 °F 25.6 °F 28.4 °F 87% 29.56 in 4.0 mi SSW 6.9 mph - N/A Snow Light Snow
5:55 PM 32.0 °F 24.2 °F 28.4 °F 87% 29.56 in 5.0 mi South 9.2 mph - N/A Snow Light Snow
6:15 PM 32.0 °F 24.2 °F 30.2 °F 93% 29.56 in 3.0 mi South 9.2 mph - N/A Snow Light Snow
6:35 PM 32.0 °F 24.2 °F 30.2 °F 93% 29.57 in 5.0 mi SSW 9.2 mph - N/A Snow Light Snow
6:55 PM 32.0 °F 22.1 °F 30.2 °F 93% 29.58 in 10.0 mi West 13.8 mph 23.0 mph N/A Snow Light Snow
7:15 PM 32.0 °F 23.6 °F 26.6 °F 80% 29.59 in 10.0 mi West 10.4 mph 25.3 mph N/A   Overcast
7:35 PM 32.0 °F 21.2 °F 23.0 °F 69% 29.60 in 10.0 mi West 16.1 mph 24.2 mph N/A   Overcast
7:55 PM 30.2 °F 19.3 °F 21.2 °F 69% 29.61 in 10.0 mi WSW 15.0 mph 19.6 mph N/A   Overcast
8:15 PM 30.2 °F 19.8 °F 21.2 °F 69% 29.62 in 10.0 mi WSW 13.8 mph 20.7 mph N/A Snow Light Snow
8:35 PM 30.2 °F 20.8 °F 21.2 °F 69% 29.63 in 7.0 mi West 11.5 mph 23.0 mph N/A Snow Light Snow
8:55 PM 30.2 °F 20.8 °F 21.2 °F 69% 29.64 in 10.0 mi West 11.5 mph 19.6 mph N/A   Overcast
9:15 PM 30.2 °F 21.3 °F 19.4 °F 64% 29.65 in 10.0 mi West 10.4 mph 20.7 mph N/A   Overcast
9:35 PM 28.4 °F 19.1 °F 17.6 °F 64% 29.66 in 10.0 mi West 10.4 mph 17.3 mph N/A   Overcast
9:55 PM 28.4 °F 16.6 °F 17.6 °F 64% 29.66 in 10.0 mi WSW 16.1 mph 20.7 mph N/A   Overcast
10:15 PM 28.4 °F 18.5 °F 15.8 °F 59% 29.66 in 10.0 mi West 11.5 mph 16.1 mph N/A   Overcast
10:35 PM 26.6 °F 16.8 °F 14.0 °F 59% 29.67 in 10.0 mi West 10.4 mph - N/A   Mostly Cloudy
10:55 PM 26.6 °F 18.2 °F 14.0 °F 59% 29.67 in 10.0 mi West 8.1 mph 16.1 mph N/A   Scattered Clouds
11:15 PM 26.6 °F 18.2 °F 14.0 °F 59% 29.67 in 10.0 mi West 8.1 mph - N/A   Clear
11:35 PM 26.6 °F 17.5 °F 12.2 °F 55% 29.68 in 10.0 mi West 9.2 mph - N/A   Scattered Clouds
11:55 PM 24.8 °F 19.1 °F 14.0 °F 64% 29.68 in 10.0 mi West 4.6 mph - N/A   Mostly Cloudy